Regional Weather Roundup
Issued by NWS

Home | Current Version | Previous Version | Graphics & Text | Print | Product List | Glossary On
Versions: 1 2 3 4 5 6 7 8 9 10 11 12 13 14 15 16 17 18 19 20 21 22 23 24 25 26 27
000
ASUS45 KTFX 191710
RWRMT
MONTANA REGIONAL WEATHER ROUNDUP
NATIONAL WEATHER SERVICE GREAT FALLS MT
1100 AM MDT SAT AUG 19 2017

NOTE: "FAIR" INDICATES FEW OR NO CLOUDS BELOW 12000 FEET WITH NO
SIGNIFICANT WEATHER AND/OR OBSTRUCTIONS TO VISIBILITY.

MTZ001>007-043-191800-
WEST OF THE DIVIDE

CITY           SKY/WX    TMP DP  RH WIND       PRES   REMARKS
KALISPELL      SUNNY     75  40  28 SW9G21    29.96S
MISSOULA       PTSUNNY   73  41  31 NW13      30.04S
BUTTE          SUNNY     71  31  22 E3        30.10F
MULLAN PASS    MOSUNNY   54  38  54 VRB3      30.16R
ANACONDA         N/A     73  28  19 CALM      30.06F
DEER LODGE       N/A     70  36  28 NE5       30.08F
EUREKA           N/A     72  41  33 MISG      29.95F
HAMILTON         N/A     72  39  30 N7        30.05S
LIBBY            N/A     73  41  31 NW6       29.97S
PLAINS           N/A     73  42  32 CALM      30.02R
$$

MTZ008-052>055-191800-
SOUTHWEST MONTANA

CITY           SKY/WX    TMP DP  RH WIND       PRES   REMARKS
BOZEMAN        CLOUDY    72  38  29 CALM      30.05F
DILLON         CLOUDY    65  42  43 SW8       30.08F
W YELLOWSTONE  CLOUDY    66  32  28 SW6       30.20F
ENNIS          MOSUNNY   72  34  25 S6        30.14S
THREE FORKS      N/A     69  36  29 CALM      30.03F
$$

MTZ009-010-012-014-046-048-049-054-191800-
EAST SLOPES AND CENTRAL MONTANA

CITY           SKY/WX    TMP DP  RH WIND       PRES   REMARKS
CUT BANK       MOSUNNY   60  38  43 N10       30.05F
GREAT FALLS    SUNNY     63  43  48 CALM      30.04F
MALMSTROM AFB  SUNNY     63  44  49 N5        30.04S
HELENA         SUNNY     78  33  19 W12       29.99F
AUGUSTA          N/A     60  42  51 N6        30.06F
BOWMANS CRNR     N/A     60  43  54 NE10      30.03F
CHOTEAU          N/A     59  41  51 VRB3      30.07F
CONRAD           N/A     61  44  53 NW2       30.07S
FAIRFIELD        N/A     60  41  48 CALM      30.04F
POWER            N/A     61  41  48 N3        30.04F
RAYNESFORD       N/A     65  43  45 N9        30.04F
ULM              N/A     64  45  51 N5        30.03F
$$

MTZ011-013-016-021-045-047-050-051-191800-
NORTH CENTRAL MONTANA

CITY           SKY/WX    TMP DP  RH WIND       PRES   REMARKS
HAVRE          MOSUNNY   66  39  37 CALM      29.99R
LEWISTOWN      MOSUNNY   69  43  38 NW12      30.03R
N BAR RANCH      N/A     68  32  26 NW14      30.05S
CHINOOK          N/A     66  39  37 NW8       29.97S
DENTON           N/A     64  44  47 NW12      29.98F
GEYSER           N/A     70  40  33 NW13      30.01S
GRASS RANGE      N/A     74  37  25 NW17      29.96S
JUDITH GAP       N/A     68  40  35 N18       30.03S
WINIFRED         N/A     65  44  45 W13G18    30.00S
$$

MTZ017>020-022>027-061-062-191800-
NORTHEAST MONTANA

CITY           SKY/WX    TMP DP  RH WIND       PRES   REMARKS
GLASGOW        MOSUNNY   71  44  37 NW16G26   29.87R
JORDAN           N/A     73  45  36 NW22G29   29.90R
SIDNEY         CLOUDY    85  44  23 NW16G26   29.76S
WOLF POINT     PTSUNNY   74  47  38 W20G28    29.81R
MALTA          SUNNY     72  41  33 N14       29.92F
PLENTYWOOD       N/A     73  46  38 NW23      29.76R
POPLAR           N/A     75  45  33 W17       29.80R
SCOBEY           N/A     69  47  45 NW17      29.83R
$$

MTZ028>42-056>058-191800-
SOUTHCENTRAL AND SOUTHEAST MONTANA

CITY           SKY/WX    TMP DP  RH WIND       PRES   REMARKS
BAKER          MOSUNNY   80  35  19 NW16      29.88R
BILLINGS       PTSUNNY   83  26  12 NW15G22   29.97S
LIVINGSTON     SUNNY     76  36  23 NW12      30.04S
MILES CITY     MOSUNNY   85  32  15 N14       29.88R
BIG TIMBER     SUNNY     77  32  19 W17       30.03S
EKALAKA          N/A     80  34  19 W9        29.91R
HARLOWTON        N/A     73  33  23 MISG      30.00F
LAUREL           N/A     76  39  26 SE3       29.97F
$$

REGIONAL REPORTS...DAKOTAS

CITY           SKY/WX    TMP DP  RH WIND       PRES   REMARKS
WILLISTON      SUNNY     82  50  32 W12       29.74R
MINOT          MOSUNNY   78  57  48 S13       29.70F
DICKINSON      SUNNY     80  49  33 W12       29.78S
BEACH            N/A     81  37  21 NW16      29.86S
CROSBY           N/A     81  46  30 W13G20    29.71S
TIOGA            N/A     75  54  46 W13       29.75R
WATFORD CITY     N/A     82  45  26 W13       29.75R
BISMARCK       SUNNY     79  61  53 S12       29.78F
GRAND FORKS    SUNNY     81  61  50 S14       29.80F
FARGO          SUNNY     77  64  64 S12       29.85F
BUFFALO SD       N/A     85  40  20 NW16      29.79F
RAPID CITY     SUNNY     85  56  37 CALM      29.87S
$$

REGIONAL REPORTS...WYOMING/IDAHO/WASHINGTON

CITY           SKY/WX    TMP DP  RH WIND       PRES   REMARKS
GILLETTE       SUNNY     84  30  14 N16G24    29.99R
SHERIDAN       CLOUDY    84  31  14 NW17      29.99S HAZE
BUFFALO WY     CLOUDY    82  27  13 N17G23    30.05S HAZE
CODY           SUNNY     78  43  28 N8        30.06F
YELLOWSTONE LA   N/A     59  39  47 SE6       30.29F
IDAHO FALLS    MOSUNNY   72  34  24 S12       30.12R
SALMON         MOSUNNY   64  39  39 CALM      30.08F
BOISE          SUNNY     72  43  35 NW8       30.05S
SPOKANE        PTSUNNY   66  45  46 S7        30.07S
$$

REGIONAL REPORTS...ALBERTA

CITY           SKY/WX    TMP DP  RH WIND       PRES   REMARKS
EDMONTON       SUNNY     59  41  51 W14G25    29.92R
CALGARY        MOSUNNY   59  34  38 S10       30.03S
LETHBRIDGE     PTSUNNY   57  37  47 N6        30.06R
MEDICINE HAT   CLOUDY    61  37  41 N12G18    30.02R
$$

REGIONAL REPORTS...SASKATCHEWAN

CITY           SKY/WX    TMP DP  RH WIND       PRES   REMARKS
SWIFT CURRENT  SUNNY     63  45  51 NW23G29   29.89R
REGINA         MOSUNNY   73  52  46 NW25G38   29.72R
SASKATOON      PTSUNNY   64  50  59 NW22G29   29.79R
$$




USA.gov is the U.S. government's official web portal to all federal, state and local government web resources and services.